| time (UTC) | temp F | wind direction | speed MPH | gust MPH | rain 1hr in | rain 24hr in | rain mn in | humidity % | barometer mb |
| 20260502194501 | 45 | 337 | 5.0 | 10.0 | 0.00 | 0.05 | 0.00 | 66 | 1015.3 |
| 20260502193001 | 45 | 355 | 5.0 | 10.0 | 0.00 | 0.05 | 0.00 | 65 | 1015.3 |
| 20260502191501 | 45 | 271 | 5.0 | 11.0 | 0.00 | 0.05 | 0.00 | 66 | 1015.5 |
| 20260502190005 | 45 | 280 | 5.0 | 11.0 | 0.00 | 0.05 | 0.00 | 64 | 1015.4 |
| 20260502184502 | 45 | 279 | 5.0 | 13.0 | 0.00 | 0.06 | 0.00 | 62 | 1015.4 |
| 20260502183001 | 45 | 278 | 4.0 | 10.0 | 0.00 | 0.06 | 0.00 | 65 | 1015.4 |
| 20260502181501 | 45 | 292 | 4.0 | 20.0 | 0.00 | 0.06 | 0.00 | 60 | 1015.3 |
| 20260502163000 | 46 | 276 | 5.0 | 11.0 | 0.00 | 0.06 | 0.00 | 56 | 1015.2 |
| 20260502123000 | 39 | 221 | 3.0 | 8.0 | 0.00 | 0.06 | 0.00 | 83 | 1016.2 |
| 20260502114459 | 37 | 216 | 4.0 | 10.0 | 0.00 | 0.06 | 0.00 | 87 | 1016.3 |
| 20260502113000 | 36 | 239 | 4.0 | 11.0 | 0.00 | 0.06 | 0.00 | 88 | 1016.3 |
| 20260502110005 | 34 | 219 | 1.0 | 4.0 | 0.00 | 0.06 | 0.00 | 91 | 1016.0 |
| 20260502102959 | 34 | 163 | 0.0 | 1.0 | 0.00 | 0.06 | 0.00 | 92 | 1015.8 |
| 20260502101459 | 33 | 88 | 0.0 | 1.0 | 0.00 | 0.06 | 0.00 | 92 | 1015.6 |
| 20260502091459 | 35 | 238 | 0.0 | 1.0 | 0.00 | 0.06 | 0.00 | 88 | 1015.4 |
| 20260502070004 | 39 | 284 | 3.0 | 8.0 | 0.00 | 0.06 | 0.00 | 82 | 1014.4 |
| 20260502062959 | 40 | 274 | 3.0 | 7.0 | 0.00 | 0.06 | 0.00 | 83 | 1014.3 |
| 20260502054459 | 41 | 214 | 2.0 | 4.0 | 0.00 | 0.06 | 0.00 | 87 | 1014.2 |
| 20260502052959 | 41 | 277 | 0.0 | 2.0 | 0.00 | 0.06 | 0.00 | 89 | 1014.2 |
| 20260502051459 | 41 | 277 | 0.0 | 1.0 | 0.00 | 0.06 | 0.00 | 89 | 1014.1 |
| 20260502044458 | 41 | 277 | 0.0 | 0.0 | 0.00 | 0.06 | 0.00 | 88 | 1014.2 |
| 20260502042958 | 41 | 277 | 0.0 | 0.0 | 0.00 | 0.06 | 0.00 | 89 | 1014.1 |
| 20260502041458 | 41 | 277 | 0.0 | 1.0 | 0.00 | 0.06 | 0.00 | 88 | 1014.3 |
| 20260502040007 | 42 | 277 | 0.0 | 1.0 | 0.00 | 0.06 | 0.00 | 89 | 1014.3 |
| 20260502034502 | 42 | 277 | 1.0 | 3.0 | 0.00 | 0.06 | 0.06 | 89 | 1014.2 |
| 20260502031502 | 42 | 277 | 3.0 | 9.0 | 0.00 | 0.06 | 0.06 | 94 | 1014.3 |
| 20260502030005 | 41 | 268 | 1.0 | 3.0 | 0.00 | 0.06 | 0.06 | 95 | 1014.3 |
| 20260502024502 | 41 | 200 | 0.0 | 1.0 | 0.00 | 0.06 | 0.06 | 95 | 1014.2 |
| 20260502021501 | 41 | 200 | 0.0 | 0.0 | 0.00 | 0.06 | 0.06 | 95 | 1014.2 |
| 20260502020005 | 41 | 200 | 0.0 | 0.0 | 0.00 | 0.06 | 0.06 | 94 | 1014.2 |
| 20260502014502 | 41 | 200 | 0.0 | 0.0 | 0.00 | 0.06 | 0.06 | 94 | 1014.2 |
| 20260502013002 | 41 | 200 | 0.0 | 0.0 | 0.00 | 0.06 | 0.06 | 93 | 1014.0 |
| 20260502011502 | 41 | 200 | 0.0 | 0.0 | 0.00 | 0.06 | 0.06 | 92 | 1014.0 |
| 20260502010005 | 41 | 200 | 0.0 | 0.0 | 0.00 | 0.06 | 0.06 | 92 | 1013.7 |
| 20260502004502 | 42 | 200 | 0.0 | 0.0 | 0.00 | 0.06 | 0.06 | 91 | 1013.5 |
| 20260502003003 | 43 | 200 | 0.0 | 0.0 | 0.00 | 0.06 | 0.06 | 91 | 1013.4 |
| 20260502001502 | 43 | 242 | 0.0 | 1.0 | 0.00 | 0.06 | 0.06 | 90 | 1013.2 |
| 20260502000005 | 43 | 165 | 0.0 | 1.0 | 0.00 | 0.06 | 0.06 | 90 | 1013.2 |
| 20260501234501 | 43 | 165 | 1.0 | 2.0 | 0.00 | 0.06 | 0.06 | 89 | 1012.9 |
| 20260501233001 | 44 | 165 | 1.0 | 4.0 | 0.00 | 0.06 | 0.06 | 89 | 1012.8 |
| 20260501231501 | 44 | 165 | 1.0 | 3.0 | 0.00 | 0.06 | 0.06 | 88 | 1012.9 |
| 20260501230008 | 44 | 185 | 2.0 | 4.0 | 0.00 | 0.06 | 0.06 | 89 | 1013.1 |
| 20260501224501 | 44 | 165 | 1.0 | 3.0 | 0.01 | 0.06 | 0.06 | 90 | 1012.9 |
| 20260501223001 | 44 | 140 | 1.0 | 3.0 | 0.01 | 0.06 | 0.06 | 89 | 1012.9 |
| 20260501220006 | 44 | 224 | 1.0 | 3.0 | 0.02 | 0.06 | 0.06 | 88 | 1013.3 |
| 20260501213001 | 44 | 27 | 1.0 | 2.0 | 0.02 | 0.05 | 0.05 | 89 | 1013.2 |
| 20260501211501 | 44 | 27 | 0.0 | 2.0 | 0.02 | 0.05 | 0.05 | 89 | 1013.1 |
| 20260501204501 | 43 | 314 | 2.0 | 3.0 | 0.01 | 0.04 | 0.04 | 89 | 1013.0 |
| 20260501203001 | 43 | 51 | 2.0 | 4.0 | 0.01 | 0.03 | 0.03 | 88 | 1013.0 |
| 20260501201501 | 43 | 58 | 2.0 | 4.0 | 0.01 | 0.03 | 0.03 | 89 | 1013.0 |
| 20260501200005 | 42 | 31 | 2.0 | 4.0 | 0.02 | 0.03 | 0.03 | 88 | 1013.1 |